• In Netherlands
  • List of Countries
  • For 7 days
  • Water Temperature
  • Satellite Maps
  • Weather Map
  • Weather Widgets
  • user-avatar
    Login

    Hourly Weather Ischgl

    Today, 21 January, Saturday

    Time Temperature Precipitation Wind Pressure Humidity
    00:00 -19°C° 0 mm 2 mps 571 mmHg 93%
    01:00 -19°C° 0 mm 2 mps 571 mmHg 92%
    02:00 -19°C° 0 mm 2 mps 571 mmHg 92%
    03:00 -19°C° 0 mm 2 mps 571 mmHg 92%
    04:00 -19°C° 0 mm 2 mps 571 mmHg 92%
    05:00 -19°C° 0 mm 2 mps 570 mmHg 92%
    06:00 -19°C° 0 mm 2 mps 570 mmHg 92%
    07:00 -19°C° 0 mm 2 mps 570 mmHg 91%
    08:00 -17°C° 0 mm 2 mps 572 mmHg 91%
    09:00 -15°C° 0 mm 2 mps 573 mmHg 91%
    10:00 -12°C° 0 mm 2 mps 574 mmHg 92%
    11:00 -9°C° 0 mm 1 mps 575 mmHg 92%
    12:00 -7°C° 0 mm 1 mps 576 mmHg 93%
    13:00 -4°C° 0 mm 1 mps 576 mmHg 94%
    14:00 -7°C° 0 mm 1 mps 575 mmHg 94%
    15:00 -8°C° 0 mm 1 mps 575 mmHg 94%
    16:00 -9°C° 0 mm 1 mps 574 mmHg 94%
    17:00 -12°C° 0 mm 1 mps 572 mmHg 93%
    18:00 -14°C° 0 mm 1 mps 571 mmHg 92%
    19:00 -19°C° 0 mm 2 mps 569 mmHg 91%
    20:00 -19°C° 0 mm 2 mps 570 mmHg 91%
    21:00 -19°C° 0 mm 2 mps 570 mmHg 90%
    22:00 -19°C° 0 mm 2 mps 570 mmHg 89%
    23:00 -19°C° 0 mm 2 mps 570 mmHg 89%

    Tomorrow, 22 January, Sunday

    Time Temperature Precipitation Wind Pressure Humidity
    00:00 -19°C° 0 mm 2 mps 570 mmHg 89%
    01:00 -19°C° 0 mm 2 mps 570 mmHg 89%
    02:00 -19°C° 0 mm 2 mps 569 mmHg 90%
    03:00 -19°C° 0 mm 2 mps 569 mmHg 90%
    04:00 -19°C° 0 mm 2 mps 569 mmHg 90%
    05:00 -19°C° 0 mm 2 mps 569 mmHg 89%
    06:00 -20°C° 0 mm 2 mps 569 mmHg 89%
    07:00 -20°C° 0 mm 2 mps 569 mmHg 89%
    08:00 -17°C° 0 mm 2 mps 570 mmHg 89%
    09:00 -15°C° 0 mm 2 mps 571 mmHg 89%
    10:00 -13°C° 0 mm 2 mps 573 mmHg 90%
    11:00 -10°C° 0 mm 2 mps 573 mmHg 91%
    12:00 -8°C° 0 mm 2 mps 574 mmHg 93%
    13:00 -6°C° 0 mm 2 mps 575 mmHg 94%
    14:00 -8°C° 0 mm 2 mps 574 mmHg 94%
    15:00 -9°C° 0 mm 2 mps 573 mmHg 94%
    16:00 -10°C° 0 mm 2 mps 572 mmHg 94%
    17:00 -13°C° 0 mm 2 mps 571 mmHg 94%
    18:00 -14°C° 0 mm 2 mps 570 mmHg 93%
    19:00 -16°C° 0 mm 2 mps 569 mmHg 93%
    20:00 -17°C° 0 mm 2 mps 569 mmHg 92%
    21:00 -17°C° 0 mm 2 mps 569 mmHg 92%
    22:00 -17°C° 0 mm 2 mps 569 mmHg 92%
    23:00 -17°C° 0 mm 2 mps 569 mmHg 92%

    Day after tomorrow, 23 January, Monday

    Time Temperature Precipitation Wind Pressure Humidity
    00:00 -16°C° 0 mm 2 mps 569 mmHg 92%
    01:00 -16°C° 0 mm 2 mps 569 mmHg 92%
    02:00 -16°C° 0 mm 2 mps 569 mmHg 92%
    03:00 -16°C° 0 mm 2 mps 568 mmHg 92%
    04:00 -17°C° 0 mm 2 mps 568 mmHg 92%
    05:00 -17°C° 0 mm 2 mps 568 mmHg 91%
    06:00 -16°C° 0 mm 2 mps 568 mmHg 91%
    07:00 -16°C° 0 mm 2 mps 568 mmHg 90%
    08:00 -14°C° 0 mm 2 mps 569 mmHg 91%
    09:00 -12°C° 0 mm 2 mps 571 mmHg 92%
    10:00 -8°C° 0 mm 1 mps 572 mmHg 92%
    11:00 -7°C° 0 mm 1 mps 572 mmHg 94%
    12:00 -4°C° 0 mm 1 mps 573 mmHg 95%
    13:00 -3°C° 0 mm 1 mps 573 mmHg 96%
    14:00 -4°C° 0 mm 1 mps 572 mmHg 96%
    15:00 -6°C° 0 mm 0 mps 571 mmHg 96%
    16:00 -7°C° 0 mm 0 mps 571 mmHg 96%
    17:00 -12°C° 0 mm 0 mps 568 mmHg 97%
    18:00 -16°C° 0 mm 0 mps 565 mmHg 98%
    19:00 -21°C° 0 mm 0 mps 562 mmHg 99%
    20:00 -22°C° 0 mm 0 mps 562 mmHg 99%
    21:00 -22°C° 0 mm 0 mps 561 mmHg 99%
    22:00 -23°C° 0 mm 0 mps 561 mmHg 99%
    23:00 -22°C° 0 mm 0 mps 562 mmHg 99%

    24 January, Tuesday

    Time Temperature Precipitation Wind Pressure Humidity
    00:00 -22°C° 0 mm 1 mps 562 mmHg 98%
    01:00 -21°C° 0 mm 1 mps 562 mmHg 98%
    02:00 -21°C° 0 mm 1 mps 562 mmHg 97%
    03:00 -21°C° 0 mm 1 mps 562 mmHg 96%
    04:00 -21°C° 0 mm 1 mps 562 mmHg 95%
    05:00 -22°C° 0 mm 1 mps 562 mmHg 93%
    06:00 -22°C° 0 mm 1 mps 562 mmHg 92%
    07:00 -22°C° 0 mm 1 mps 562 mmHg 90%
    08:00 -18°C° 0 mm 1 mps 565 mmHg 89%
    09:00 -13°C° 0 mm 1 mps 568 mmHg 88%
    10:00 -8°C° 0 mm 1 mps 571 mmHg 87%
    11:00 -7°C° 0 mm 1 mps 572 mmHg 89%
    12:00 -6°C° 0 mm 1 mps 573 mmHg 91%
    13:00 -4°C° 0 mm 1 mps 573 mmHg 92%
    14:00 -6°C° 0 mm 1 mps 572 mmHg 93%
    15:00 -7°C° 0 mm 1 mps 572 mmHg 94%
    16:00 -9°C° 0 mm 1 mps 571 mmHg 96%
    17:00 -13°C° 0 mm 1 mps 569 mmHg 95%
    18:00 -17°C° 0 mm 1 mps 567 mmHg 95%
    19:00 -21°C° 0 mm 1 mps 564 mmHg 95%
    20:00 -21°C° 0 mm 1 mps 565 mmHg 91%
    21:00 -21°C° 0 mm 1 mps 565 mmHg 88%
    22:00 -21°C° 0 mm 1 mps 565 mmHg 84%
    23:00 -21°C° 0 mm 1 mps 565 mmHg 81%

    25 January, Wednesday

    Time Temperature Precipitation Wind Pressure Humidity
    00:00 -21°C° 0 mm 1 mps 565 mmHg 78%
    01:00 -21°C° 0 mm 1 mps 566 mmHg 76%
    02:00 -21°C° 0 mm 1 mps 566 mmHg 75%
    03:00 -20°C° 0 mm 1 mps 566 mmHg 75%
    04:00 -20°C° 0 mm 1 mps 566 mmHg 75%
    05:00 -20°C° 0 mm 1 mps 566 mmHg 74%
    06:00 -21°C° 0 mm 1 mps 566 mmHg 74%
    07:00 -21°C° 0 mm 1 mps 566 mmHg 74%
    08:00 -17°C° 0 mm 1 mps 569 mmHg 78%
    09:00 -12°C° 0 mm 1 mps 572 mmHg 81%
    10:00 -8°C° 0 mm 1 mps 575 mmHg 84%
    11:00 -7°C° 0 mm 1 mps 575 mmHg 87%
    12:00 -5°C° 0 mm 0 mps 576 mmHg 90%
    13:00 -4°C° 0 mm 0 mps 576 mmHg 93%
    14:00 -5°C° 0 mm 0 mps 575 mmHg 93%
    15:00 -6°C° 0 mm 0 mps 574 mmHg 92%
    16:00 -8°C° 0 mm 0 mps 574 mmHg 92%
    17:00 -12°C° 0 mm 0 mps 571 mmHg 93%
    18:00 -16°C° 0 mm 0 mps 568 mmHg 94%
    19:00 -21°C° 0 mm 0 mps 566 mmHg 95%
    20:00 -20°C° 0 mm 0 mps 566 mmHg 92%
    21:00 -20°C° 0 mm 0 mps 566 mmHg 88%
    22:00 -20°C° 0 mm 0 mps 566 mmHg 85%
    23:00 -20°C° 0 mm 0 mps 566 mmHg 83%

    26 January, Thursday

    Time Temperature Precipitation Wind Pressure Humidity
    00:00 -20°C° 0 mm 0 mps 566 mmHg 80%
    01:00 -20°C° 0 mm 0 mps 566 mmHg 78%
    02:00 -20°C° 0 mm 0 mps 566 mmHg 76%
    03:00 -20°C° 0 mm 0 mps 566 mmHg 75%
    04:00 -20°C° 0 mm 0 mps 566 mmHg 74%
    05:00 -19°C° 0 mm 1 mps 566 mmHg 73%
    06:00 -19°C° 0 mm 1 mps 567 mmHg 72%
    07:00 -19°C° 0 mm 1 mps 567 mmHg 71%
    08:00 -15°C° 0 mm 1 mps 570 mmHg 75%
    09:00 -10°C° 0 mm 1 mps 573 mmHg 80%
    10:00 -6°C° 0 mm 1 mps 576 mmHg 85%
    11:00 -4°C° 0 mm 1 mps 576 mmHg 88%
    12:00 -4°C° 0 mm 0 mps 576 mmHg 91%
    13:00 -3°C° 0 mm 0 mps 577 mmHg 94%
    14:00 -4°C° 0 mm 0 mps 576 mmHg 94%
    15:00 -5°C° 0 mm 0 mps 575 mmHg 93%
    16:00 -6°C° 0 mm 0 mps 575 mmHg 93%
    17:00 -10°C° 0 mm 0 mps 573 mmHg 94%
    18:00 -14°C° 0 mm 0 mps 570 mmHg 96%
    19:00 -18°C° 0 mm 0 mps 568 mmHg 97%
    20:00 -17°C° 0 mm 1 mps 569 mmHg 96%
    21:00 -16°C° 0 mm 1 mps 570 mmHg 95%
    22:00 -15°C° 0 mm 1 mps 571 mmHg 94%
    23:00 -15°C° 0 mm 1 mps 571 mmHg 93%
    Show more